TimeMST,TemperatureF,Dew PointF,Humidity,Sea Level PressureIn,VisibilityMPH,Wind Direction,Wind SpeedMPH,Gust SpeedMPH,PrecipitationIn,Events,Conditions,WindDirDegrees,DateUTC
12:55 AM,82.0,42.1,24,29.90,10.0,Calm,Calm,-,N/A,,Scattered Clouds,0,2012-10-04 07:55:00
1:55 AM,79.0,45.0,30,29.90,10.0,Calm,Calm,-,N/A,,Mostly Cloudy,0,2012-10-04 08:55:00
2:55 AM,75.9,46.9,36,29.89,10.0,Calm,Calm,-,N/A,,Mostly Cloudy,0,2012-10-04 09:55:00
3:55 AM,77.0,46.9,34,29.89,10.0,Calm,Calm,-,N/A,,Mostly Cloudy,0,2012-10-04 10:55:00
4:55 AM,75.9,45.0,33,29.91,10.0,Calm,Calm,-,N/A,,Mostly Cloudy,0,2012-10-04 11:55:00
5:55 AM,73.9,46.0,37,29.93,10.0,Calm,Calm,-,N/A,,Mostly Cloudy,0,2012-10-04 12:55:00
6:55 AM,77.0,37.0,24,29.94,10.0,Calm,Calm,-,N/A,,Mostly Cloudy,0,2012-10-04 13:55:00
7:55 AM,79.0,39.9,25,29.96,10.0,Calm,Calm,-,N/A,,Mostly Cloudy,0,2012-10-04 14:55:00
8:55 AM,84.9,35.1,17,29.97,10.0,NNW,3.5,-,N/A,,Mostly Cloudy,330,2012-10-04 15:55:00
9:55 AM,89.1,35.1,15,29.98,10.0,WNW,6.9,-,N/A,,Mostly Cloudy,290,2012-10-04 16:55:00
10:55 AM,91.9,33.1,12,29.98,10.0,WNW,8.1,-,N/A,,Mostly Cloudy,290,2012-10-04 17:55:00
11:55 AM,93.9,33.1,12,29.97,10.0,WSW,6.9,-,N/A,,Mostly Cloudy,250,2012-10-04 18:55:00
12:55 PM,95.0,33.1,11,29.94,10.0,Variable,3.5,-,N/A,,Mostly Cloudy,0,2012-10-04 19:55:00
1:55 PM,96.1,32.0,10,29.91,10.0,South,5.8,-,N/A,,Mostly Cloudy,190,2012-10-04 20:55:00
2:55 PM,98.1,32.0,10,29.90,10.0,WSW,4.6,-,N/A,,Mostly Cloudy,250,2012-10-04 21:55:00
3:55 PM,99.0,30.0,9,29.88,10.0,Calm,Calm,-,N/A,,Mostly Cloudy,0,2012-10-04 22:55:00
4:55 PM,98.1,30.9,9,29.87,10.0,West,3.5,-,N/A,,Mostly Cloudy,270,2012-10-04 23:55:00
5:55 PM,96.1,34.0,11,29.86,10.0,South,5.8,-,N/A,,Mostly Cloudy,170,2012-10-05 00:55:00
6:55 PM,91.0,39.9,17,29.86,10.0,SSE,5.8,-,N/A,,Scattered Clouds,150,2012-10-05 01:55:00
7:55 PM,89.1,37.0,16,29.87,10.0,South,9.2,-,N/A,,Scattered Clouds,190,2012-10-05 02:55:00
8:55 PM,84.9,39.9,20,29.90,10.0,West,9.2,-,N/A,,Scattered Clouds,280,2012-10-05 03:55:00
9:55 PM,82.9,48.9,31,29.91,10.0,West,3.5,-,N/A,,Scattered Clouds,280,2012-10-05 04:55:00
10:55 PM,81.0,50.0,34,29.91,10.0,Calm,Calm,-,N/A,,Scattered Clouds,0,2012-10-05 05:55:00
11:55 PM,78.1,50.0,37,29.91,10.0,Calm,Calm,-,N/A,,Scattered Clouds,0,2012-10-05 06:55:00